Location: Montreal
(45.5000°N, 73.5833°W)
Time: 20:04:43
(UTC-04:00)

Tiangong 2 - Pass Details

Date: 12 October 2017
Orbit: 388 x 392 km, 42.8° (Epoch: 18 October)

Event Time Altitude Azimuth Distance (km) Brightness Sun altitude
Exits shadow 05:16:11 35° 161° (SSE) 655 2.2 -20.1°
Drops below altitude 10° 05:19:05 10° 97° (E) 1,423 5.0 -19.6°
Sets 05:21:16 0° 88° (E) 2,280 6.6 -19.3°
